Tracking 35331 objects as of 14-Sep-2026
HD Live streaming from Space Station
objects crossing your sky now

GALAXY 36

Track GALAXY 36 now!
GALAXY 36 is classified as:


NORAD ID: 54742
Int'l Code: 2022-170B
Launch date: December 13, 2022
Source: United States (US)
Launch site: FRENCH GUIANA (FRGUI)
Your satellite tracking list
Your tracking list is empty




NASA's NSSDC Master Catalog

Two Line Element Set (TLE):
1 54742U 22170B   26257.26841794 -.00000194  00000-0  00000-0 0  9992
2 54742   0.0148 173.0643 0002057 311.3886 236.4351  1.00271943 13673
Source of the keplerian elements: AFSPC